This is the latest recevied weather packets stored in our database for station/object PA1CD-13. If no packets are shown the sender has not sent any weather packets the latest 10 day(s).
| Time | Temp. | Humidity | Pressure | Rain* | Wind** | Luminosity | Snow |
|---|---|---|---|---|---|---|---|
| 1777558504 | 19.44° C | 35% | 1026.3 hPa | 0 mm | - | 652 W/m² | - |
| 1777558385 | 19.44° C | 33% | 1026.3 hPa | 0 mm | - | 661 W/m² | - |
| 1777558231 | 19.44° C | 33% | 1026.4 hPa | 0 mm | - | 659 W/m² | - |
| 1777558112 | 20° C | 35% | 1026.4 hPa | 0 mm | - | 668 W/m² | - |
| 1777557992 | 20° C | 35% | 1026.5 hPa | 0 mm | - | 668 W/m² | - |
| 1777557871 | 20° C | 35% | 1026.4 hPa | 0 mm | - | 670 W/m² | - |
| 1777557752 | 20° C | 36% | 1026.4 hPa | 0 mm | - | 679 W/m² | - |
| 1777557630 | 19.44° C | 33% | 1026.4 hPa | 0 mm | - | 679 W/m² | - |
| 1777557510 | 19.44° C | 33% | 1026.5 hPa | 0 mm | - | 675 W/m² | - |
| 1777557389 | 19.44° C | 33% | 1026.5 hPa | 0 mm | - | 675 W/m² | - |
| 1777557269 | 19.44° C | 32% | 1026.5 hPa | 0 mm | - | 681 W/m² | - |
| 1777557151 | 19.44° C | 33% | 1026.6 hPa | 0 mm | - | 686 W/m² | - |
| 1777557029 | 19.44° C | 32% | 1026.6 hPa | 0 mm | - | 693 W/m² | - |
| 1777556909 | 19.44° C | 32% | 1026.6 hPa | 0 mm | - | 693 W/m² | - |
| 1777556789 | 19.44° C | 33% | 1026.7 hPa | 0 mm | - | 700 W/m² | - |
| 1777556668 | 19.44° C | 30% | 1026.6 hPa | 0 mm | - | 700 W/m² | - |
| 1777556552 | 19.44° C | 30% | 1026.7 hPa | 0 mm | - | 696 W/m² | - |
| 1777556429 | 19.44° C | 30% | 1026.7 hPa | 0 mm | - | 705 W/m² | - |
| 1777556310 | 19.44° C | 32% | 1026.7 hPa | 0 mm | - | 705 W/m² | - |
| 1777556189 | 19.44° C | 32% | 1026.9 hPa | 0 mm | - | 705 W/m² | - |
| 1777556068 | 19.44° C | 32% | 1026.8 hPa | 0 mm | - | 707 W/m² | - |
| 1777555950 | 19.44° C | 31% | 1026.9 hPa | 0 mm | - | 600 W/m² | - |
| 1777555829 | 19.44° C | 29% | 1026.8 hPa | 0 mm | - | 600 W/m² | - |
| 1777555707 | 19.44° C | 31% | 1026.8 hPa | 0 mm | - | 262 W/m² | - |
| 1777555588 | 19.44° C | 31% | 1026.9 hPa | 0 mm | - | 605 W/m² | - |
* Rain latest hour (hover to see other rain measurements)
** Current wind speed in m/s (hover to see current wind gust speed)